Hourly Data Report for June 01, 2003

All times are specified in Local Standard Time (LST). Add 1 hour to adjust for Daylight Saving Time where and when it is observed.

TORONTO CITY
ONTARIO

43°40'00.000" N
79°24'00.000" W
112.50 m
6158355
71508
XTO

Download Data

Hourly Data (June 2003)
Hourly Data Report for June 1, 2003
TIME Temp Definition
°C
Dew Point Definition
°C
Rel Hum Definition
%
Wind Dir Definition
10's deg

Wind Spd Definition
km/h
Visibility Definition
km
Stn Press Definition
kPa
Hmdx Definition


Wind Chill Definition


Weather Definition


00:00 11.7 4.2 60 LegendMM LegendMM LegendMM 99.37     LegendNANA
01:00 10.9 2.5 56 LegendMM LegendMM LegendMM 99.41     LegendNANA
02:00 9.4 2.3 61 LegendMM LegendMM LegendMM 99.42     LegendNANA
03:00 8.5 1.7 62 LegendMM LegendMM LegendMM 99.42     LegendNANA
04:00 7.8 1.6 65 LegendMM LegendMM LegendMM 99.45     LegendNANA
05:00 6.9 1.4 68 LegendMM LegendMM LegendMM 99.52     LegendNANA
06:00 6.7 1.4 69 LegendMM LegendMM LegendMM 99.57     LegendNANA
07:00 7.5 0.9 63 LegendMM LegendMM LegendMM 99.63     LegendNANA
08:00 9.3 0.7 55 LegendMM LegendMM LegendMM 99.65     LegendNANA
09:00 10.7 1.5 53 LegendMM LegendMM LegendMM 99.69     LegendNANA
10:00 12.3 1.0 46 LegendMM LegendMM LegendMM 99.70     LegendNANA
11:00 13.8 0.1 39 LegendMM LegendMM LegendMM 99.74     LegendNANA
12:00 15.0 0.5 37 LegendMM LegendMM LegendMM 99.70     LegendNANA
13:00 14.9 2.5 43 LegendMM LegendMM LegendMM 99.70     LegendNANA
14:00 15.3 2.5 42 LegendMM LegendMM LegendMM 99.72     LegendNANA
15:00 16.0 1.7 38 LegendMM LegendMM LegendMM 99.72     LegendNANA
16:00 16.3 2.0 38 LegendMM LegendMM LegendMM 99.74     LegendNANA
17:00 15.7 1.8 39 LegendMM LegendMM LegendMM 99.78     LegendNANA
18:00 15.5 1.6 39 LegendMM LegendMM LegendMM 99.80     LegendNANA
19:00 15.3 1.1 38 LegendMM LegendMM LegendMM 99.85     LegendNANA
20:00 14.5 1.4 41 LegendMM LegendMM LegendMM 99.89     LegendNANA
21:00 13.8 2.1 45 LegendMM LegendMM LegendMM 99.93     LegendNANA
22:00 13.0 2.8 50 LegendMM LegendMM LegendMM 99.96     LegendNANA
23:00 12.6 2.7 51 LegendMM LegendMM LegendMM 99.95     LegendNANA

Notes on Data Quality.

Legend

  • E = Estimated
  • M = Missing
  • NA = Not Available
Date modified: